Tracking 22458 objects as of 2-Mar-2021
HD Live streaming from Space Station
objects crossing your sky now

QUANTUM-RADAR 3

Track QUANTUM-RADAR 3 now!
10-day predictions


NORAD ID: 44416
Int'l Code: 2019-022F
Perigee: 468.2 km
Apogee: 483.8 km
Inclination: 51.6 °
Period: 94.0 minutes
Semi major axis: 6846 km
RCS: Unknown
Launch date: April 17, 2019
Source: United States (US)
Launch site: WALLOPS ISLAND (WLPIS)
aabbcc
Your satellite tracking list
Your tracking list is empty




NASA's NSSDC Master Catalog

Two Line Element Set (TLE):
1 44416U 19022F   21060.72196611  .00003666  00000-0  12724-3 0  9995
2 44416  51.6402 233.8095 0011370 156.5533 203.5969 15.32334955 87660
Source of the keplerian elements: AFSPC